Location: Norwich
(42.5310°N, 75.5240°W)
Time: 04:22:24
(UTC-04:00)

Tiangong 2 - Visible Passes

Search period start: 26 March 2019 00:00
Search period end: 05 April 2019 00:00
Orbit: 380 x 389 km, 42.8° (Epoch: 26 March)

Date Brightness Start Highest point End Pass type
(mag) Time Alt. Az. Time Alt. Az. Time Alt. Az.
29 Mar 3.8 21:20:16 10° SW 21:20:31 12° SW 21:20:31 12° SW visible
30 Mar 2.7 20:21:23 10° SSW 20:23:41 19° SSE 20:24:27 17° SE visible
31 Mar 1.4 20:57:34 10° SW 21:00:27 46° S 21:00:27 46° S visible
01 Apr 2.1 19:58:21 10° SW 20:01:09 30° SSE 20:03:57 10° E visible
01 Apr 2.8 21:34:34 10° W 21:36:17 29° W 21:36:17 29° W visible
02 Apr 1.0 20:35:02 10° WSW 20:38:10 68° SSE 20:39:45 26° E visible
02 Apr 4.4 22:11:46 10° W 22:11:58 11° W 22:11:58 11° W visible
03 Apr 0.9 21:12:10 10° W 21:15:19 84° N 21:15:19 84° N visible
04 Apr 1.0 20:12:35 10° W 20:15:44 86° S 20:18:36 12° E visible
04 Apr 3.2 21:49:21 10° W 21:50:49 25° W 21:50:49 25° W visible
